This demonstration page uses our WeatherBlox Daily Observations layout. Learn more.

36.17497, -115.13722

Hourly Observations for June 17, 2015

Temp ( °F °C ) Dew Point ( °F °C ) Humidity (%) Winds ( mph kmh ) Pressure ( in mb ) Visibility ( mi km ) Precip ( " mm )
3:53 am 03:53 Clear 79 26.1 13 -10.6 8 8 WNW 5 7 29.79 1009 10 16.0934 0 0
4:53 am 04:53 Clear 75 23.9 15 -9.4 10 10 NNW 5 7 29.8 1009 10 16.0934 0 0
5:53 am 05:53 Sunny 73 22.8 19 -7.2 13 13 NNW 6 9 29.82 1010 10 16.0934 0 0
6:53 am 06:53 Sunny 79 26.1 22 -5.6 12 12 N 6 9 29.84 1011 10 16.0934 0 0
7:53 am 07:53 Sunny 85 29.4 21 -6.1 9 9 N 6 9 29.85 1011 10 16.0934 0 0
8:53 am 08:53 Sunny 88 31.1 22 -5.6 9 9 N 3 6 29.87 1012 10 16.0934 0 0
9:53 am 09:53 Sunny 91 32.8 20 -6.7 7 7 Calm 29.87 1011 10 16.0934 0 0
10:53 am 10:53 Sunny 95 35 17 -8.3 6 6 VRB 3 6 29.86 1011 10 16.0934 0 0
11:53 am 11:53 Sunny 101 38.3 -19 -28.3 1 1 S 10 17 29.83 1010 10 16.0934 0 0
12:53 pm 12:53 Sunny 104 40 -36 -37.8 0 0 SSW 15 24 29.81 1010 10 16.0934 0 0
1:53 pm 13:53 Sunny 104 40 -27 -32.8 0 0 W 9 15 29.79 1009 10 16.0934 0 0
2:53 pm 14:53 Sunny 107 41.7 -40 -40 0 0 SW 13 20 29.76 1008 10 16.0934 0 0
3:53 pm 15:53 Sunny 107 41.7 -40 -40 0 0 W 16 26 29.75 1007 10 16.0934 0 0
4:53 pm 16:53 Sunny 108 42.2 -36 -37.8 0 0 WSW 18 30 29.73 1007 10 16.0934 0 0
5:53 pm 17:53 Sunny 105 40.6 -16 -26.7 1 1 WSW 16 26 29.73 1007 10 16.0934 0 0
6:53 pm 18:53 Sunny 104 40 -6 -21.1 1 1 WSW 15 24 29.73 1007 10 16.0934 0 0
7:53 pm 19:53 Sunny 102 38.9 -5 -20.6 2 2 WSW 13 20 29.73 1007 10 16.0934 0 0
8:53 pm 20:53 Clear 99 37.2 -5 -20.6 2 2 W 8 13 29.75 1007 10 16.0934 0 0
9:53 pm 21:53 Clear 97 36.1 -2 -18.9 2 2 W 6 9 29.76 1008 10 16.0934 0 0
10:53 pm 22:53 Clear 95 35 5 -15 3 3 W 10 17 29.78 1008 10 16.0934 0 0
11:53 pm 23:53 Clear 90 32.2 11 -11.7 5 5 Calm 29.78 1009 10 16.0934 0 0

Powered by AerisWeather